Time,TemperatureF,DewpointF,PressureIn,WindDirection,WindDirectionDegrees,WindSpeedMPH,WindSpeedGustMPH,Humidity,HourlyPrecipIn,Conditions,Clouds,dailyrainin,SoftwareType,DateUTC
2013-01-03 00:00:00,42.8,25.4,30.13,West,271,0.0,0.0,50,0.00,,,0.00,Wunderground v.1.15,2013-01-03 08:00:00,
2013-01-03 00:10:00,43.0,24.6,30.13,West,271,0.0,0.0,48,0.00,,,0.00,Wunderground v.1.15,2013-01-03 08:10:00,
2013-01-03 00:15:00,42.1,25.7,30.13,West,271,0.0,0.0,52,0.00,,,0.00,Wunderground v.1.15,2013-01-03 08:15:00,
2013-01-03 00:20:00,41.2,23.9,30.13,West,271,0.0,0.0,50,0.00,,,0.00,Wunderground v.1.15,2013-01-03 08:20:00,
2013-01-03 00:25:00,40.6,26.1,30.13,West,271,0.0,0.0,56,0.00,,,0.00,Wunderground v.1.15,2013-01-03 08:25:00,
2013-01-03 00:30:00,39.6,26.0,30.13,West,271,0.0,0.0,58,0.00,,,0.00,Wunderground v.1.15,2013-01-03 08:30:00,
2013-01-03 00:35:00,38.9,26.2,30.13,West,271,0.0,0.0,60,0.00,,,0.00,Wunderground v.1.15,2013-01-03 08:35:00,
2013-01-03 00:40:00,38.2,26.3,30.13,West,271,0.0,0.0,62,0.00,,,0.00,Wunderground v.1.15,2013-01-03 08:40:00,
2013-01-03 00:45:00,37.6,25.7,30.13,West,271,0.0,0.0,62,0.00,,,0.00,Wunderground v.1.15,2013-01-03 08:45:00,
2013-01-03 00:50:00,37.6,25.7,30.13,West,271,0.0,0.0,62,0.00,,,0.00,Wunderground v.1.15,2013-01-03 08:50:00,
2013-01-03 00:55:00,37.6,23.7,30.13,West,271,0.0,0.0,57,0.00,,,0.00,Wunderground v.1.15,2013-01-03 08:55:00,
2013-01-03 01:05:00,37.1,25.3,30.13,West,271,0.0,1.0,62,0.00,,,0.00,Wunderground v.1.15,2013-01-03 09:05:00,
2013-01-03 01:10:00,36.8,25.0,30.13,West,271,0.0,0.0,62,0.00,,,0.00,Wunderground v.1.15,2013-01-03 09:10:00,
2013-01-03 01:15:00,36.6,25.2,30.13,West,271,0.0,1.0,63,0.00,,,0.00,Wunderground v.1.15,2013-01-03 09:15:00,
2013-01-03 01:20:00,36.2,25.2,30.13,West,271,0.0,0.0,64,0.00,,,0.00,Wunderground v.1.15,2013-01-03 09:20:00,
2013-01-03 01:25:00,35.9,25.6,30.13,West,271,0.0,0.0,66,0.00,,,0.00,Wunderground v.1.15,2013-01-03 09:25:00,
2013-01-03 01:30:00,35.5,25.6,30.13,West,271,0.0,0.0,67,0.00,,,0.00,Wunderground v.1.15,2013-01-03 09:30:00,
2013-01-03 01:35:00,35.2,25.0,30.13,West,271,0.0,0.0,66,0.00,,,0.00,Wunderground v.1.15,2013-01-03 09:35:00,
2013-01-03 01:40:00,35.5,25.6,30.13,West,271,0.0,0.0,67,0.00,,,0.00,Wunderground v.1.15,2013-01-03 09:40:00,
2013-01-03 01:45:00,35.2,25.3,30.13,West,271,0.0,0.0,67,0.00,,,0.00,Wunderground v.1.15,2013-01-03 09:45:00,
2013-01-03 01:50:00,34.9,25.4,30.13,West,271,0.0,0.0,68,0.00,,,0.00,Wunderground v.1.15,2013-01-03 09:50:00,
2013-01-03 01:55:00,34.6,25.5,30.13,West,271,0.0,0.0,69,0.00,,,0.00,Wunderground v.1.15,2013-01-03 09:55:00,
2013-01-03 02:00:00,34.3,25.2,30.13,West,271,0.0,0.0,69,0.00,,,0.00,Wunderground v.1.15,2013-01-03 10:00:00,
2013-01-03 02:05:00,34.0,25.2,30.13,West,271,0.0,1.0,70,0.00,,,0.00,Wunderground v.1.15,2013-01-03 10:05:00,
2013-01-03 02:10:00,33.6,25.2,30.14,West,271,0.0,0.0,71,0.00,,,0.00,Wunderground v.1.15,2013-01-03 10:10:00,
2013-01-03 02:15:00,33.5,25.4,30.13,West,271,0.0,0.0,72,0.00,,,0.00,Wunderground v.1.15,2013-01-03 10:15:00,
2013-01-03 02:20:00,33.5,25.4,30.14,West,271,0.0,0.0,72,0.00,,,0.00,Wunderground v.1.15,2013-01-03 10:20:00,
2013-01-03 02:25:00,33.4,25.7,30.14,West,271,0.0,0.0,73,0.00,,,0.00,Wunderground v.1.15,2013-01-03 10:25:00,
2013-01-03 02:30:00,33.4,25.3,30.13,West,271,0.0,0.0,72,0.00,,,0.00,Wunderground v.1.15,2013-01-03 10:30:00,
2013-01-03 02:35:00,33.4,25.3,30.13,West,271,0.0,0.0,72,0.00,,,0.00,Wunderground v.1.15,2013-01-03 10:35:00,
2013-01-03 02:40:00,33.3,25.6,30.13,West,271,0.0,0.0,73,0.00,,,0.00,Wunderground v.1.15,2013-01-03 10:40:00,
2013-01-03 02:45:00,33.0,25.3,30.13,West,271,0.0,0.0,73,0.00,,,0.00,Wunderground v.1.15,2013-01-03 10:45:00,
2013-01-03 02:50:00,32.9,25.5,30.13,West,271,0.0,0.0,74,0.00,,,0.00,Wunderground v.1.15,2013-01-03 10:50:00,
2013-01-03 02:55:00,32.9,25.2,30.13,West,271,0.0,0.0,73,0.00,,,0.00,Wunderground v.1.15,2013-01-03 10:55:00,
2013-01-03 03:00:00,32.9,25.2,30.13,West,271,0.0,0.0,73,0.00,,,0.00,Wunderground v.1.15,2013-01-03 11:00:00,
2013-01-03 03:05:00,32.8,25.1,30.13,West,271,0.0,0.0,73,0.00,,,0.00,Wunderground v.1.15,2013-01-03 11:05:00,
2013-01-03 03:10:00,32.7,25.3,30.14,West,271,0.0,1.0,74,0.00,,,0.00,Wunderground v.1.15,2013-01-03 11:10:00,
2013-01-03 03:15:00,32.5,25.1,30.14,West,271,0.0,1.0,74,0.00,,,0.00,Wunderground v.1.15,2013-01-03 11:15:00,
2013-01-03 03:20:00,32.4,25.0,30.13,West,271,0.0,1.0,74,0.00,,,0.00,Wunderground v.1.15,2013-01-03 11:20:00,
2013-01-03 03:25:00,32.3,24.9,30.14,West,271,0.0,1.0,74,0.00,,,0.00,Wunderground v.1.15,2013-01-03 11:25:00,
2013-01-03 03:30:00,32.3,25.3,30.14,West,271,0.0,1.0,75,0.00,,,0.00,Wunderground v.1.15,2013-01-03 11:30:00,
2013-01-03 03:35:00,32.2,25.2,30.14,West,271,0.0,1.0,75,0.00,,,0.00,Wunderground v.1.15,2013-01-03 11:35:00,
2013-01-03 03:40:00,32.2,25.2,30.14,West,271,0.0,0.0,75,0.00,,,0.00,Wunderground v.1.15,2013-01-03 11:40:00,
2013-01-03 03:45:00,32.2,25.2,30.14,West,271,0.0,0.0,75,0.00,,,0.00,Wunderground v.1.15,2013-01-03 11:45:00,
2013-01-03 03:55:00,32.1,25.1,30.14,West,271,0.0,0.0,75,0.00,,,0.00,Wunderground v.1.15,2013-01-03 11:55:00,
2013-01-03 04:00:00,31.9,25.2,30.14,West,271,0.0,0.0,76,0.00,,,0.00,Wunderground v.1.15,2013-01-03 12:00:00,
2013-01-03 04:05:00,31.7,25.0,30.14,West,271,0.0,0.0,76,0.00,,,0.00,Wunderground v.1.15,2013-01-03 12:05:00,
2013-01-03 04:15:00,31.5,25.1,30.14,West,271,0.0,0.0,77,0.00,,,0.00,Wunderground v.1.15,2013-01-03 12:15:00,
2013-01-03 04:20:00,31.5,25.1,30.14,West,271,0.0,0.0,77,0.00,,,0.00,Wunderground v.1.15,2013-01-03 12:20:00,
2013-01-03 04:25:00,31.3,24.9,30.15,West,271,0.0,0.0,77,0.00,,,0.00,Wunderground v.1.15,2013-01-03 12:25:00,
2013-01-03 04:30:00,31.1,25.0,30.14,West,271,0.0,0.0,78,0.00,,,0.00,Wunderground v.1.15,2013-01-03 12:30:00,
2013-01-03 04:35:00,31.0,24.9,30.14,West,271,0.0,0.0,78,0.00,,,0.00,Wunderground v.1.15,2013-01-03 12:35:00,
2013-01-03 04:40:00,31.2,25.1,30.14,West,271,0.0,1.0,78,0.00,,,0.00,Wunderground v.1.15,2013-01-03 12:40:00,
2013-01-03 04:45:00,31.3,24.9,30.14,West,271,0.0,1.0,77,0.00,,,0.00,Wunderground v.1.15,2013-01-03 12:45:00,
2013-01-03 04:50:00,31.2,25.1,30.14,West,271,0.0,0.0,78,0.00,,,0.00,Wunderground v.1.15,2013-01-03 12:50:00,
2013-01-03 04:55:00,30.8,24.7,30.14,West,271,0.0,0.0,78,0.00,,,0.00,Wunderground v.1.15,2013-01-03 12:55:00,
2013-01-03 05:00:00,30.8,25.1,30.14,West,271,0.0,0.0,79,0.00,,,0.00,Wunderground v.1.15,2013-01-03 13:00:00,
2013-01-03 05:05:00,30.8,25.1,30.15,West,271,0.0,0.0,79,0.00,,,0.00,Wunderground v.1.15,2013-01-03 13:05:00,
2013-01-03 05:10:00,30.7,25.0,30.15,West,271,0.0,0.0,79,0.00,,,0.00,Wunderground v.1.15,2013-01-03 13:10:00,
2013-01-03 05:15:00,30.6,24.9,30.15,West,271,0.0,0.0,79,0.00,,,0.00,Wunderground v.1.15,2013-01-03 13:15:00,
2013-01-03 05:25:00,30.5,25.1,30.15,West,271,0.0,0.0,80,0.00,,,0.00,Wunderground v.1.15,2013-01-03 13:25:00,
2013-01-03 05:30:00,30.4,25.0,30.15,West,271,0.0,0.0,80,0.00,,,0.00,Wunderground v.1.15,2013-01-03 13:30:00,
2013-01-03 05:35:00,30.5,25.4,30.15,West,271,0.0,1.0,81,0.00,,,0.00,Wunderground v.1.15,2013-01-03 13:35:00,
2013-01-03 05:40:00,30.5,25.1,30.15,West,271,0.0,0.0,80,0.00,,,0.00,Wunderground v.1.15,2013-01-03 13:40:00,
2013-01-03 05:45:00,30.8,25.4,30.16,West,271,0.0,0.0,80,0.00,,,0.00,Wunderground v.1.15,2013-01-03 13:45:00,
2013-01-03 05:50:00,32.0,25.6,30.16,West,271,0.0,0.0,77,0.00,,,0.00,Wunderground v.1.15,2013-01-03 13:50:00,
2013-01-03 05:55:00,33.9,25.8,30.16,West,271,1.0,1.0,72,0.00,,,0.00,Wunderground v.1.15,2013-01-03 13:55:00,
2013-01-03 06:00:00,33.9,25.5,30.16,North,11,1.0,1.0,71,0.00,,,0.00,Wunderground v.1.15,2013-01-03 14:00:00,
2013-01-03 06:05:00,33.6,25.5,30.16,North,11,0.0,1.0,72,0.00,,,0.00,Wunderground v.1.15,2013-01-03 14:05:00,
2013-01-03 06:10:00,33.5,25.8,30.16,West,267,0.0,0.0,73,0.00,,,0.00,Wunderground v.1.15,2013-01-03 14:10:00,
2013-01-03 06:15:00,33.8,26.1,30.16,West,267,0.0,0.0,73,0.00,,,0.00,Wunderground v.1.15,2013-01-03 14:15:00,
2013-01-03 06:20:00,35.0,25.9,30.16,West,271,0.0,1.0,69,0.00,,,0.00,Wunderground v.1.15,2013-01-03 14:20:00,
2013-01-03 06:25:00,35.7,25.1,30.16,West,271,1.0,1.0,65,0.00,,,0.00,Wunderground v.1.15,2013-01-03 14:25:00,
2013-01-03 06:30:00,38.7,24.8,30.16,West,271,1.0,2.0,57,0.00,,,0.00,Wunderground v.1.15,2013-01-03 14:30:00,
2013-01-03 06:35:00,39.4,25.0,30.16,West,271,1.0,2.0,56,0.00,,,0.00,Wunderground v.1.15,2013-01-03 14:35:00,
2013-01-03 06:40:00,40.6,24.3,30.16,WSW,257,1.0,1.0,52,0.00,,,0.00,Wunderground v.1.15,2013-01-03 14:40:00,
2013-01-03 06:45:00,41.5,24.2,30.17,WSW,257,1.0,1.0,50,0.00,,,0.00,Wunderground v.1.15,2013-01-03 14:45:00,
2013-01-03 06:50:00,41.7,23.9,30.17,WSW,257,1.0,1.0,49,0.00,,,0.00,Wunderground v.1.15,2013-01-03 14:50:00,
2013-01-03 06:55:00,41.7,24.9,30.17,WSW,257,1.0,1.0,51,0.00,,,0.00,Wunderground v.1.15,2013-01-03 14:55:00,
2013-01-03 07:00:00,41.6,24.8,30.17,WSW,257,1.0,1.0,51,0.00,,,0.00,Wunderground v.1.15,2013-01-03 15:00:00,
2013-01-03 07:05:00,41.6,25.7,30.18,WSW,257,1.0,1.0,53,0.00,,,0.00,Wunderground v.1.15,2013-01-03 15:05:00,
2013-01-03 07:10:00,40.6,25.7,30.17,WSW,257,0.0,1.0,55,0.00,,,0.00,Wunderground v.1.15,2013-01-03 15:10:00,
2013-01-03 07:15:00,39.1,25.6,30.17,WNW,294,0.0,1.0,58,0.00,,,0.00,Wunderground v.1.15,2013-01-03 15:15:00,
2013-01-03 07:20:00,38.6,25.1,30.18,NNW,329,1.0,1.0,58,0.00,,,0.00,Wunderground v.1.15,2013-01-03 15:20:00,
2013-01-03 07:25:00,38.1,25.4,30.18,NNW,340,1.0,1.0,60,0.00,,,0.00,Wunderground v.1.15,2013-01-03 15:25:00,
2013-01-03 07:30:00,38.1,24.6,30.18,NNW,337,1.0,4.0,58,0.00,,,0.00,Wunderground v.1.15,2013-01-03 15:30:00,
2013-01-03 07:35:00,39.4,22.3,30.18,NW,316,1.0,4.0,50,0.00,,,0.00,Wunderground v.1.15,2013-01-03 15:35:00,
2013-01-03 07:40:00,40.9,25.1,30.18,NW,316,1.0,2.0,53,0.00,,,0.00,Wunderground v.1.15,2013-01-03 15:40:00,
2013-01-03 07:45:00,42.6,22.2,30.19,WNW,284,0.0,2.0,44,0.00,,,0.00,Wunderground v.1.15,2013-01-03 15:45:00,
2013-01-03 07:50:00,43.4,23.4,30.19,WNW,286,0.0,0.0,45,0.00,,,0.00,Wunderground v.1.15,2013-01-03 15:50:00,
2013-01-03 07:55:00,45.4,23.6,30.19,WNW,286,0.0,0.0,42,0.00,,,0.00,Wunderground v.1.15,2013-01-03 15:55:00,
2013-01-03 08:00:00,45.5,24.3,30.19,WNW,286,0.0,1.0,43,0.00,,,0.00,Wunderground v.1.15,2013-01-03 16:00:00,
2013-01-03 08:05:00,45.9,24.6,30.20,WNW,286,0.0,1.0,43,0.00,,,0.00,Wunderground v.1.15,2013-01-03 16:05:00,
2013-01-03 08:10:00,45.9,24.6,30.20,WNW,286,0.0,1.0,43,0.00,,,0.00,Wunderground v.1.15,2013-01-03 16:10:00,
2013-01-03 08:15:00,46.3,22.7,30.20,West,277,0.0,1.0,39,0.00,,,0.00,Wunderground v.1.15,2013-01-03 16:15:00,
2013-01-03 08:20:00,47.2,22.2,30.20,West,277,0.0,0.0,37,0.00,,,0.00,Wunderground v.1.15,2013-01-03 16:20:00,
2013-01-03 08:25:00,47.5,22.5,30.20,West,277,0.0,0.0,37,0.00,,,0.00,Wunderground v.1.15,2013-01-03 16:25:00,
2013-01-03 08:30:00,49.1,20.5,30.20,WSW,239,0.0,1.0,32,0.00,,,0.00,Wunderground v.1.15,2013-01-03 16:30:00,
2013-01-03 08:40:00,50.8,20.4,30.20,SW,227,0.0,0.0,30,0.00,,,0.00,Wunderground v.1.15,2013-01-03 16:40:00,
2013-01-03 08:45:00,51.9,20.6,30.20,SW,227,0.0,0.0,29,0.00,,,0.00,Wunderground v.1.15,2013-01-03 16:45:00,
2013-01-03 08:50:00,52.8,20.5,30.20,SW,232,0.0,1.0,28,0.00,,,0.00,Wunderground v.1.15,2013-01-03 16:50:00,
2013-01-03 08:55:00,53.8,18.7,30.20,SW,232,1.0,1.0,25,0.00,,,0.00,Wunderground v.1.15,2013-01-03 16:55:00,
2013-01-03 09:00:00,54.6,21.2,30.21,SW,232,0.0,0.0,27,0.00,,,0.00,Wunderground v.1.15,2013-01-03 17:00:00,
2013-01-03 09:10:00,55.8,20.5,30.22,ENE,67,1.0,2.0,25,0.00,,,0.00,Wunderground v.1.15,2013-01-03 17:10:00,
2013-01-03 09:15:00,56.8,17.2,30.22,ENE,74,2.0,2.0,21,0.00,,,0.00,Wunderground v.1.15,2013-01-03 17:15:00,
2013-01-03 09:20:00,57.9,17.0,30.22,East,82,2.0,2.0,20,0.00,,,0.00,Wunderground v.1.15,2013-01-03 17:20:00,
2013-01-03 09:25:00,58.0,20.4,30.22,NE,42,1.0,5.0,23,0.00,,,0.00,Wunderground v.1.15,2013-01-03 17:25:00,
2013-01-03 09:30:00,58.0,20.4,30.22,NE,45,1.0,1.0,23,0.00,,,0.00,Wunderground v.1.15,2013-01-03 17:30:00,
2013-01-03 09:35:00,57.7,20.1,30.22,SSW,207,1.0,2.0,23,0.00,,,0.00,Wunderground v.1.15,2013-01-03 17:35:00,
2013-01-03 09:40:00,57.7,19.1,30.22,WSW,254,1.0,1.0,22,0.00,,,0.00,Wunderground v.1.15,2013-01-03 17:40:00,
2013-01-03 09:45:00,57.9,19.2,30.22,North,355,1.0,1.0,22,0.00,,,0.00,Wunderground v.1.15,2013-01-03 17:45:00,
2013-01-03 09:50:00,58.3,17.3,30.22,NE,51,1.0,1.0,20,0.00,,,0.00,Wunderground v.1.15,2013-01-03 17:50:00,
2013-01-03 09:55:00,58.9,16.7,30.22,ESE,111,2.0,6.0,19,0.00,,,0.00,Wunderground v.1.15,2013-01-03 17:55:00,
2013-01-03 10:05:00,59.2,19.2,30.22,NE,43,1.0,2.0,21,0.00,,,0.00,Wunderground v.1.15,2013-01-03 18:05:00,
2013-01-03 10:10:00,59.3,18.2,30.22,NW,326,0.0,1.0,20,0.00,,,0.00,Wunderground v.1.15,2013-01-03 18:10:00,
2013-01-03 10:15:00,59.7,19.6,30.21,SW,232,1.0,1.0,21,0.00,,,0.00,Wunderground v.1.15,2013-01-03 18:15:00,
2013-01-03 10:20:00,59.8,18.6,30.21,SW,222,1.0,2.0,20,0.00,,,0.00,Wunderground v.1.15,2013-01-03 18:20:00,
2013-01-03 10:25:00,60.4,16.6,30.21,NW,312,1.0,2.0,18,0.00,,,0.00,Wunderground v.1.15,2013-01-03 18:25:00,
2013-01-03 10:30:00,61.3,18.6,30.21,West,273,2.0,2.0,19,0.00,,,0.00,Wunderground v.1.15,2013-01-03 18:30:00,
2013-01-03 10:40:00,61.9,17.9,30.21,NE,36,2.0,3.0,18,0.00,,,0.00,Wunderground v.1.15,2013-01-03 18:40:00,
2013-01-03 10:45:00,62.2,16.8,30.21,NE,51,3.0,3.0,17,0.00,,,0.00,Wunderground v.1.15,2013-01-03 18:45:00,
2013-01-03 10:55:00,62.2,20.6,30.21,SSW,200,1.0,3.0,20,0.00,,,0.00,Wunderground v.1.15,2013-01-03 18:55:00,
2013-01-03 11:00:00,62.3,18.2,30.20,NNE,26,1.0,2.0,18,0.00,,,0.00,Wunderground v.1.15,2013-01-03 19:00:00,
2013-01-03 11:10:00,62.7,17.2,30.20,NE,34,1.0,1.0,17,0.00,,,0.00,Wunderground v.1.15,2013-01-03 19:10:00,
2013-01-03 11:15:00,62.9,16.0,30.20,ENE,71,2.0,2.0,16,0.00,,,0.00,Wunderground v.1.15,2013-01-03 19:15:00,
2013-01-03 11:50:00,64.5,17.3,30.18,WNW,301,1.0,2.0,16,0.00,,,0.00,Wunderground v.1.15,2013-01-03 19:50:00,
2013-01-03 11:55:00,64.8,16.0,30.18,NW,317,1.0,2.0,15,0.00,,,0.00,Wunderground v.1.15,2013-01-03 19:55:00,
2013-01-03 12:00:00,64.7,17.4,30.18,WNW,287,2.0,3.0,16,0.00,,,0.00,Wunderground v.1.15,2013-01-03 20:00:00,
2013-01-03 12:10:00,64.7,14.3,30.17,East,96,3.0,3.0,14,0.00,,,0.00,Wunderground v.1.15,2013-01-03 20:10:00,
2013-01-03 12:15:00,65.0,14.6,30.17,South,177,3.0,3.0,14,0.00,,,0.00,Wunderground v.1.15,2013-01-03 20:15:00,
2013-01-03 12:20:00,65.1,14.7,30.18,NNW,344,2.0,5.0,14,0.00,,,0.00,Wunderground v.1.15,2013-01-03 20:20:00,
2013-01-03 12:25:00,65.1,13.0,30.17,SW,223,3.0,5.0,13,0.00,,,0.00,Wunderground v.1.15,2013-01-03 20:25:00,
2013-01-03 12:30:00,65.0,12.9,30.17,ENE,71,3.0,3.0,13,0.00,,,0.00,Wunderground v.1.15,2013-01-03 20:30:00,
2013-01-03 12:35:00,65.0,12.9,30.17,West,275,2.0,3.0,13,0.00,,,0.00,Wunderground v.1.15,2013-01-03 20:35:00,
2013-01-03 12:40:00,64.9,12.8,30.17,West,269,2.0,2.0,13,0.00,,,0.00,Wunderground v.1.15,2013-01-03 20:40:00,
2013-01-03 12:45:00,64.8,14.4,30.17,WSW,248,3.0,5.0,14,0.00,,,0.00,Wunderground v.1.15,2013-01-03 20:45:00,
2013-01-03 12:50:00,64.7,12.7,30.17,NW,316,3.0,3.0,13,0.00,,,0.00,Wunderground v.1.15,2013-01-03 20:50:00,
2013-01-03 12:55:00,64.7,14.3,30.17,North,5,2.0,3.0,14,0.00,,,0.00,Wunderground v.1.15,2013-01-03 20:55:00,
2013-01-03 13:00:00,64.6,15.8,30.16,ENE,69,2.0,6.0,15,0.00,,,0.00,Wunderground v.1.15,2013-01-03 21:00:00,
2013-01-03 13:05:00,64.7,14.3,30.16,West,278,2.0,6.0,14,0.00,,,0.00,Wunderground v.1.15,2013-01-03 21:05:00,
2013-01-03 13:10:00,64.7,14.3,30.16,ENE,57,2.0,2.0,14,0.00,,,0.00,Wunderground v.1.15,2013-01-03 21:10:00,
2013-01-03 13:15:00,64.9,14.5,30.16,NE,53,2.0,2.0,14,0.00,,,0.00,Wunderground v.1.15,2013-01-03 21:15:00,
2013-01-03 13:20:00,64.9,12.8,30.16,East,97,2.0,6.0,13,0.00,,,0.00,Wunderground v.1.15,2013-01-03 21:20:00,
2013-01-03 13:25:00,64.8,12.7,30.16,ENE,60,3.0,6.0,13,0.00,,,0.00,Wunderground v.1.15,2013-01-03 21:25:00,
2013-01-03 13:30:00,64.9,14.5,30.17,ESE,104,2.0,4.0,14,0.00,,,0.00,Wunderground v.1.15,2013-01-03 21:30:00,
2013-01-03 13:35:00,64.9,12.8,30.16,South,176,2.0,4.0,13,0.00,,,0.00,Wunderground v.1.15,2013-01-03 21:35:00,
2013-01-03 13:40:00,64.8,12.7,30.16,East,96,2.0,2.0,13,0.00,,,0.00,Wunderground v.1.15,2013-01-03 21:40:00,
2013-01-03 13:45:00,64.6,12.6,30.16,East,97,3.0,3.0,13,0.00,,,0.00,Wunderground v.1.15,2013-01-03 21:45:00,
2013-01-03 13:50:00,64.5,12.5,30.16,ESE,102,3.0,3.0,13,0.00,,,0.00,Wunderground v.1.15,2013-01-03 21:50:00,
2013-01-03 13:55:00,64.4,14.1,30.16,ESE,102,3.0,4.0,14,0.00,,,0.00,Wunderground v.1.15,2013-01-03 21:55:00,
2013-01-03 14:00:00,64.4,14.1,30.16,ENE,78,3.0,6.0,14,0.00,,,0.00,Wunderground v.1.15,2013-01-03 22:00:00,
2013-01-03 14:05:00,64.4,14.1,30.16,NW,306,4.0,6.0,14,0.00,,,0.00,Wunderground v.1.15,2013-01-03 22:05:00,
2013-01-03 14:10:00,64.3,12.3,30.16,East,88,4.0,4.0,13,0.00,,,0.00,Wunderground v.1.15,2013-01-03 22:10:00,
2013-01-03 14:15:00,64.3,12.3,30.17,SSE,158,3.0,4.0,13,0.00,,,0.00,Wunderground v.1.15,2013-01-03 22:15:00,
2013-01-03 14:25:00,64.3,15.6,30.17,ESE,108,2.0,5.0,15,0.00,,,0.00,Wunderground v.1.15,2013-01-03 22:25:00,
2013-01-03 14:30:00,64.1,15.4,30.17,North,5,2.0,4.0,15,0.00,,,0.00,Wunderground v.1.15,2013-01-03 22:30:00,
2013-01-03 14:40:00,63.9,15.3,30.17,NW,313,2.0,2.0,15,0.00,,,0.00,Wunderground v.1.15,2013-01-03 22:40:00,
2013-01-03 14:45:00,64.0,15.4,30.17,East,84,2.0,2.0,15,0.00,,,0.00,Wunderground v.1.15,2013-01-03 22:45:00,
2013-01-03 14:50:00,63.9,15.3,30.17,North,360,2.0,2.0,15,0.00,,,0.00,Wunderground v.1.15,2013-01-03 22:50:00,
2013-01-03 14:55:00,63.8,18.1,30.17,East,86,2.0,2.0,17,0.00,,,0.00,Wunderground v.1.15,2013-01-03 22:55:00,
2013-01-03 15:00:00,63.5,15.0,30.17,WNW,302,2.0,2.0,15,0.00,,,0.00,Wunderground v.1.15,2013-01-03 23:00:00,
2013-01-03 15:05:00,63.6,16.5,30.17,SE,128,2.0,6.0,16,0.00,,,0.00,Wunderground v.1.15,2013-01-03 23:05:00,
2013-01-03 15:10:00,63.7,13.5,30.17,NNE,23,2.0,2.0,14,0.00,,,0.00,Wunderground v.1.15,2013-01-03 23:10:00,
2013-01-03 15:15:00,63.8,13.6,30.17,North,5,3.0,3.0,14,0.00,,,0.00,Wunderground v.1.15,2013-01-03 23:15:00,
2013-01-03 15:20:00,63.5,15.0,30.17,NW,318,2.0,2.0,15,0.00,,,0.00,Wunderground v.1.15,2013-01-03 23:20:00,
2013-01-03 15:30:00,63.2,14.7,30.17,North,11,2.0,2.0,15,0.00,,,0.00,Wunderground v.1.15,2013-01-03 23:30:00,
2013-01-03 15:35:00,63.2,13.1,30.17,North,5,2.0,2.0,14,0.00,,,0.00,Wunderground v.1.15,2013-01-03 23:35:00,
2013-01-03 15:40:00,63.1,14.6,30.17,East,101,3.0,4.0,15,0.00,,,0.00,Wunderground v.1.15,2013-01-03 23:40:00,
2013-01-03 15:45:00,62.8,15.9,30.17,SSW,213,2.0,4.0,16,0.00,,,0.00,Wunderground v.1.15,2013-01-03 23:45:00,
2013-01-03 15:50:00,62.6,14.2,30.17,NW,311,1.0,1.0,15,0.00,,,0.00,Wunderground v.1.15,2013-01-03 23:50:00,
2013-01-03 15:55:00,62.4,14.1,30.17,NNE,27,1.0,1.0,15,0.00,,,0.00,Wunderground v.1.15,2013-01-03 23:55:00,
2013-01-03 16:00:00,62.3,14.0,30.17,South,171,1.0,2.0,15,0.00,,,0.00,Wunderground v.1.15,2013-01-04 00:00:00,
2013-01-03 16:05:00,62.1,16.7,30.17,WSW,237,1.0,2.0,17,0.00,,,0.00,Wunderground v.1.15,2013-01-04 00:05:00,
2013-01-03 16:10:00,61.8,12.0,30.17,ENE,78,1.0,2.0,14,0.00,,,0.00,Wunderground v.1.15,2013-01-04 00:10:00,
2013-01-03 16:20:00,61.9,12.1,30.17,East,80,2.0,2.0,14,0.00,,,0.00,Wunderground v.1.15,2013-01-04 00:20:00,
2013-01-03 16:25:00,61.8,12.0,30.17,East,96,2.0,2.0,14,0.00,,,0.00,Wunderground v.1.15,2013-01-04 00:25:00,
2013-01-03 16:30:00,61.3,13.2,30.17,ENE,65,1.0,1.0,15,0.00,,,0.00,Wunderground v.1.15,2013-01-04 00:30:00,
2013-01-03 16:35:00,61.1,14.5,30.17,NNE,26,1.0,1.0,16,0.00,,,0.00,Wunderground v.1.15,2013-01-04 00:35:00,
2013-01-03 16:40:00,61.0,11.4,30.18,North,355,1.0,1.0,14,0.00,,,0.00,Wunderground v.1.15,2013-01-04 00:40:00,
2013-01-03 16:45:00,60.8,11.2,30.18,NW,326,1.0,4.0,14,0.00,,,0.00,Wunderground v.1.15,2013-01-04 00:45:00,
2013-01-03 16:50:00,61.0,11.4,30.18,ENE,58,1.0,1.0,14,0.00,,,0.00,Wunderground v.1.15,2013-01-04 00:50:00,
2013-01-03 16:55:00,60.8,12.8,30.18,NNE,27,2.0,2.0,15,0.00,,,0.00,Wunderground v.1.15,2013-01-04 00:55:00,
2013-01-03 17:00:00,60.6,11.1,30.18,SSE,155,2.0,4.0,14,0.00,,,0.00,Wunderground v.1.15,2013-01-04 01:00:00,
2013-01-03 17:05:00,60.5,12.5,30.18,ENE,76,2.0,4.0,15,0.00,,,0.00,Wunderground v.1.15,2013-01-04 01:05:00,
2013-01-03 17:10:00,60.1,12.2,30.18,East,81,1.0,2.0,15,0.00,,,0.00,Wunderground v.1.15,2013-01-04 01:10:00,
2013-01-03 17:15:00,60.0,12.1,30.18,NW,306,1.0,2.0,15,0.00,,,0.00,Wunderground v.1.15,2013-01-04 01:15:00,
2013-01-03 17:20:00,60.1,10.7,30.18,NW,319,1.0,1.0,14,0.00,,,0.00,Wunderground v.1.15,2013-01-04 01:20:00,
2013-01-03 17:25:00,60.1,10.7,30.18,NW,316,1.0,2.0,14,0.00,,,0.00,Wunderground v.1.15,2013-01-04 01:25:00,
2013-01-03 17:30:00,60.0,12.1,30.19,SSW,196,1.0,1.0,15,0.00,,,0.00,Wunderground v.1.15,2013-01-04 01:30:00,
2013-01-03 17:35:00,59.5,13.2,30.19,North,5,1.0,1.0,16,0.00,,,0.00,Wunderground v.1.15,2013-01-04 01:35:00,
2013-01-03 17:40:00,59.0,12.8,30.19,North,5,1.0,1.0,16,0.00,,,0.00,Wunderground v.1.15,2013-01-04 01:40:00,
2013-01-03 17:45:00,58.4,12.3,30.19,SW,232,1.0,1.0,16,0.00,,,0.00,Wunderground v.1.15,2013-01-04 01:45:00,
2013-01-03 17:50:00,58.5,10.9,30.19,WSW,252,1.0,1.0,15,0.00,,,0.00,Wunderground v.1.15,2013-01-04 01:50:00,
2013-01-03 17:55:00,58.1,14.8,30.19,WSW,252,1.0,1.0,18,0.00,,,0.00,Wunderground v.1.15,2013-01-04 01:55:00,
2013-01-03 18:00:00,57.0,13.8,30.19,WSW,242,0.0,0.0,18,0.00,,,0.00,Wunderground v.1.15,2013-01-04 02:00:00,
2013-01-03 18:05:00,56.5,13.4,30.19,West,277,1.0,1.0,18,0.00,,,0.00,Wunderground v.1.15,2013-01-04 02:05:00,
2013-01-03 18:10:00,55.3,16.0,30.20,West,275,0.0,1.0,21,0.00,,,0.00,Wunderground v.1.15,2013-01-04 02:10:00,
2013-01-03 18:15:00,53.9,15.9,30.20,West,275,1.0,1.0,22,0.00,,,0.00,Wunderground v.1.15,2013-01-04 02:15:00,
2013-01-03 18:25:00,52.2,19.2,30.21,West,275,1.0,1.0,27,0.00,,,0.00,Wunderground v.1.15,2013-01-04 02:25:00,
2013-01-03 18:30:00,51.5,15.8,30.21,West,273,1.0,1.0,24,0.00,,,0.00,Wunderground v.1.15,2013-01-04 02:30:00,
2013-01-03 18:35:00,51.3,18.4,30.21,West,273,0.0,1.0,27,0.00,,,0.00,Wunderground v.1.15,2013-01-04 02:35:00,
2013-01-03 18:40:00,50.2,19.1,30.21,West,273,1.0,1.0,29,0.00,,,0.00,Wunderground v.1.15,2013-01-04 02:40:00,
2013-01-03 18:45:00,49.5,17.7,30.21,West,273,1.0,1.0,28,0.00,,,0.00,Wunderground v.1.15,2013-01-04 02:45:00,
2013-01-03 18:55:00,49.1,17.3,30.21,West,273,1.0,1.0,28,0.00,,,0.00,Wunderground v.1.15,2013-01-04 02:55:00,
2013-01-03 19:00:00,48.9,18.0,30.21,West,273,1.0,1.0,29,0.00,,,0.00,Wunderground v.1.15,2013-01-04 03:00:00,
2013-01-03 19:04:00,48.3,19.8,30.21,West,273,0.0,1.0,32,0.00,,,0.00,Wunderground v.1.15,2013-01-04 03:04:00,
2013-01-03 19:10:00,47.6,18.4,30.21,West,273,0.0,0.0,31,0.00,,,0.00,Wunderground v.1.15,2013-01-04 03:10:00,
2013-01-03 19:15:00,46.7,20.5,30.21,West,273,0.0,2.0,35,0.00,,,0.00,Wunderground v.1.15,2013-01-04 03:15:00,
2013-01-03 19:20:00,46.1,21.9,30.22,West,273,0.0,0.0,38,0.00,,,0.00,Wunderground v.1.15,2013-01-04 03:20:00,
2013-01-03 19:25:00,45.7,18.9,30.22,West,273,0.0,0.0,34,0.00,,,0.00,Wunderground v.1.15,2013-01-04 03:25:00,
2013-01-03 19:30:00,45.8,20.3,30.22,West,273,1.0,1.0,36,0.00,,,0.00,Wunderground v.1.15,2013-01-04 03:30:00,
2013-01-03 19:40:00,44.9,20.2,30.22,West,273,0.0,2.0,37,0.00,,,0.00,Wunderground v.1.15,2013-01-04 03:40:00,
2013-01-03 19:45:00,44.5,21.0,30.22,West,273,0.0,2.0,39,0.00,,,0.00,Wunderground v.1.15,2013-01-04 03:45:00,
2013-01-03 19:50:00,44.1,18.8,30.22,West,273,1.0,1.0,36,0.00,,,0.00,Wunderground v.1.15,2013-01-04 03:50:00,
2013-01-03 19:55:00,44.3,17.7,30.22,West,273,1.0,1.0,34,0.00,,,0.00,Wunderground v.1.15,2013-01-04 03:55:00,
2013-01-03 20:00:00,43.9,20.5,30.23,West,273,1.0,1.0,39,0.00,,,0.00,Wunderground v.1.15,2013-01-04 04:00:00,
2013-01-03 20:05:00,43.7,19.1,30.23,West,273,0.0,2.0,37,0.00,,,0.00,Wunderground v.1.15,2013-01-04 04:05:00,
2013-01-03 20:10:00,43.8,19.2,30.23,West,273,1.0,2.0,37,0.00,,,0.00,Wunderground v.1.15,2013-01-04 04:10:00,
2013-01-03 20:15:00,44.2,18.9,30.23,WSW,252,1.0,2.0,36,0.00,,,0.00,Wunderground v.1.15,2013-01-04 04:15:00,
2013-01-03 20:20:00,44.6,18.6,30.23,WSW,252,1.0,1.0,35,0.00,,,0.00,Wunderground v.1.15,2013-01-04 04:20:00,
2013-01-03 20:25:00,44.2,18.9,30.23,WSW,252,1.0,1.0,36,0.00,,,0.00,Wunderground v.1.15,2013-01-04 04:25:00,
2013-01-03 20:30:00,44.0,18.7,30.23,WSW,252,1.0,1.0,36,0.00,,,0.00,Wunderground v.1.15,2013-01-04 04:30:00,
2013-01-03 20:35:00,44.1,18.2,30.23,WSW,252,1.0,2.0,35,0.00,,,0.00,Wunderground v.1.15,2013-01-04 04:35:00,
2013-01-03 20:40:00,45.0,17.6,30.24,WSW,252,1.0,1.0,33,0.00,,,0.00,Wunderground v.1.15,2013-01-04 04:40:00,
2013-01-03 20:45:00,44.6,18.6,30.24,WSW,252,1.0,1.0,35,0.00,,,0.00,Wunderground v.1.15,2013-01-04 04:45:00,
2013-01-03 20:50:00,44.2,20.2,30.24,WSW,252,1.0,1.0,38,0.00,,,0.00,Wunderground v.1.15,2013-01-04 04:50:00,
2013-01-03 20:55:00,43.6,18.4,30.24,WSW,252,0.0,1.0,36,0.00,,,0.00,Wunderground v.1.15,2013-01-04 04:55:00,
2013-01-03 21:05:00,42.9,20.8,30.24,WSW,252,1.0,2.0,41,0.00,,,0.00,Wunderground v.1.15,2013-01-04 05:05:00,
2013-01-03 21:10:00,42.4,19.2,30.24,WSW,248,1.0,2.0,39,0.00,,,0.00,Wunderground v.1.15,2013-01-04 05:10:00,
2013-01-03 21:15:00,42.5,19.3,30.24,WSW,248,1.0,2.0,39,0.00,,,0.00,Wunderground v.1.15,2013-01-04 05:15:00,
2013-01-03 21:25:00,42.4,21.5,30.25,WSW,248,1.0,1.0,43,0.00,,,0.00,Wunderground v.1.15,2013-01-04 05:25:00,
2013-01-03 21:30:00,42.3,19.1,30.25,WSW,248,0.0,0.0,39,0.00,,,0.00,Wunderground v.1.15,2013-01-04 05:30:00,
2013-01-03 21:35:00,42.5,18.0,30.25,WSW,248,0.0,0.0,37,0.00,,,0.00,Wunderground v.1.15,2013-01-04 05:35:00,
2013-01-03 21:40:00,42.1,19.5,30.25,WSW,248,0.0,1.0,40,0.00,,,0.00,Wunderground v.1.15,2013-01-04 05:40:00,
2013-01-03 21:45:00,41.7,19.1,30.25,WSW,248,1.0,1.0,40,0.00,,,0.00,Wunderground v.1.15,2013-01-04 05:45:00,
2013-01-03 21:50:00,41.0,19.6,30.25,WSW,248,1.0,2.0,42,0.00,,,0.00,Wunderground v.1.15,2013-01-04 05:50:00,
2013-01-03 21:55:00,40.8,20.0,30.26,WSW,248,1.0,2.0,43,0.00,,,0.00,Wunderground v.1.15,2013-01-04 05:55:00,
2013-01-03 22:00:00,40.5,19.2,30.26,WSW,248,1.0,1.0,42,0.00,,,0.00,Wunderground v.1.15,2013-01-04 06:00:00,
2013-01-03 22:05:00,40.0,21.9,30.26,WSW,248,1.0,1.0,48,0.00,,,0.00,Wunderground v.1.15,2013-01-04 06:05:00,
2013-01-03 22:10:00,39.5,22.4,30.26,WSW,248,0.0,0.0,50,0.00,,,0.00,Wunderground v.1.15,2013-01-04 06:10:00,
2013-01-03 22:15:00,39.0,22.4,30.26,WSW,248,0.0,0.0,51,0.00,,,0.00,Wunderground v.1.15,2013-01-04 06:15:00,
2013-01-03 22:20:00,38.5,22.4,30.26,WSW,248,0.0,0.0,52,0.00,,,0.00,Wunderground v.1.15,2013-01-04 06:20:00,
2013-01-03 22:25:00,38.2,20.7,30.26,WSW,248,0.0,0.0,49,0.00,,,0.00,Wunderground v.1.15,2013-01-04 06:25:00,
2013-01-03 22:30:00,38.9,19.9,30.26,WSW,248,1.0,1.0,46,0.00,,,0.00,Wunderground v.1.15,2013-01-04 06:30:00,
2013-01-03 22:35:00,39.7,20.6,30.25,WSW,248,1.0,2.0,46,0.00,,,0.00,Wunderground v.1.15,2013-01-04 06:35:00,
2013-01-03 22:40:00,40.3,20.1,30.25,WSW,248,1.0,1.0,44,0.00,,,0.00,Wunderground v.1.15,2013-01-04 06:40:00,
2013-01-03 22:45:00,40.7,21.5,30.25,WSW,248,1.0,1.0,46,0.00,,,0.00,Wunderground v.1.15,2013-01-04 06:45:00,
2013-01-03 22:50:00,40.0,20.9,30.25,WSW,248,0.0,0.0,46,0.00,,,0.00,Wunderground v.1.15,2013-01-04 06:50:00,
2013-01-03 22:55:00,39.7,21.6,30.25,WSW,248,0.0,1.0,48,0.00,,,0.00,Wunderground v.1.15,2013-01-04 06:55:00,
2013-01-03 23:05:00,38.7,21.2,30.25,NNW,336,0.0,1.0,49,0.00,,,0.00,Wunderground v.1.15,2013-01-04 07:05:00,
2013-01-03 23:10:00,38.5,21.5,30.25,NNW,336,0.0,1.0,50,0.00,,,0.00,Wunderground v.1.15,2013-01-04 07:10:00,
2013-01-03 23:15:00,38.3,21.7,30.25,NNW,336,0.0,1.0,51,0.00,,,0.00,Wunderground v.1.15,2013-01-04 07:15:00,
2013-01-03 23:25:00,37.9,21.4,30.25,WNW,284,0.0,0.0,51,0.00,,,0.00,Wunderground v.1.15,2013-01-04 07:25:00,
2013-01-03 23:30:00,38.1,20.6,30.25,West,277,1.0,2.0,49,0.00,,,0.00,Wunderground v.1.15,2013-01-04 07:30:00,
2013-01-03 23:40:00,41.4,18.9,30.25,West,271,1.0,2.0,40,0.00,,,0.00,Wunderground v.1.15,2013-01-04 07:40:00,
2013-01-03 23:45:00,42.0,19.4,30.25,West,271,1.0,2.0,40,0.00,,,0.00,Wunderground v.1.15,2013-01-04 07:45:00,
2013-01-03 23:50:00,41.2,20.9,30.25,West,271,0.0,0.0,44,0.00,,,0.00,Wunderground v.1.15,2013-01-04 07:50:00,
2013-01-03 23:55:00,40.6,19.8,30.25,West,271,0.0,2.0,43,0.00,,,0.00,Wunderground v.1.15,2013-01-04 07:55:00,